Regional Weather Roundup
Issued by NWS

Home | Current Version | Previous Version | Text Only | Print | Product List | Glossary On
Versions: 1 2 3 4 5 6 7 8 9 10 11 12 13 14 15 16 17 18 19 20 21 22 23 24 25 26 27 28 29 30 31 32 33 34 35 36 37 38 39 40 41 42 43 44 45 46 47 48 49 50
000
ASUS43 KDTX 260401
RWRMI
MICHIGAN HOURLY REGIONAL WEATHER ROUNDUP
NATIONAL WEATHER SERVICE DETROIT/PONTIAC MI
1200 AM EDT TUE MAY 26 2015

NOTE: "FAIR" INDICATES FEW OR NO CLOUDS BELOW 12,000 FEET WITH NO
SIGNIFICANT WEATHER AND/OR OBSTRUCTION TO VISIBILITY.

MIZ047>049-052>055-059>063-066>070-074>076-081>083-260500-
SOUTHEAST LOWER MICHIGAN

CITY           SKY/WX    TMP DP  RH WIND       PRES   REMARKS
ADRIAN         CLOUDY    71  61  70 SW10      30.04R
ALMA           CLOUDY    66  61  85 S6        29.96S
ANN ARBOR      CLOUDY    70  62  76 SW6       30.02R
BAD AXE        CLOUDY    67  60  76 SW8       29.97R
CARO           CLOUDY    64  60  86 SW3       29.97R
DETROIT CITY   MOCLDY    75  61  61 SW13      30.01R
DETROIT        MOCLDY    74  61  63 S12       30.02R
FLINT          CLOUDY    68  62  81 S6        29.99R
GROSSE ILE     PTCLDY    66  63  88 S10       30.01S
HILLSDALE      CLOUDY    71  64  78 SW7       30.04R
HOWELL         CLOUDY    68  63  83 CALM      30.00S

CITY           SKY/WX    TMP DP  RH WIND       PRES   REMARKS
JACKSON        CLOUDY    70  61  73 S8        30.02R
LAMBERTVILLE   MOCLDY    73  61  64 SW10G16   30.05R
LANSING        CLOUDY    66  60  81 S6        30.00R
LAPEER         NOT AVBL
MASON          CLOUDY    64  60  87 CALM      30.00S
MONROE         MOCLDY    73  63  68 SW9       30.02R
MT. CLEMENS    MOCLDY    71  63  73 W1        29.99R
PONTIAC        CLOUDY    70  63  78 S6        30.00S
PORT HOPE        N/A    N/A N/A N/A SW8G20    29.93R
PORT HURON     PTCLDY    70  64  83 CALM      30.01R
TRI CITIES     CLOUDY    69  61  75 S8        29.96R
MIDLAND        FAIR      67  60  77 S5        29.94S
TROY           MOCLDY    74  62  66 SW3       30.03R
SAGINAW HB     CLOUDY    66  61  82 S7        29.96R
$$
MIZ043>046-050>051-056>058-064>065-071>073-077>080-260500-
SOUTHWEST LOWER MICHIGAN

CITY           SKY/WX    TMP DP  RH WIND       PRES   REMARKS
BATTLE CREEK   CLOUDY    68  59  73 S10       30.01R
BENTON HARBOR  CLEAR     70  60  70 S9        29.98R
BIG RAPIDS     CLEAR     66  58  75 SW12G20   29.94R
COLDWATER      CLOUDY    70  60  72 SW7       30.03R
FREMONT        FAIR      64  58  81 SW7       29.94S
HOLLAND        CLEAR     66  58  75 S7        29.97R
GRAND RAPIDS   MOCLDY    65  59  81 S8        29.97S
IONIA          FAIR      67  59  74 SW7       29.97R
KALAMAZOO      MOCLDY    67  59  75 S9        30.00R
LUDINGTON      CLEAR     68  59  73 SW16G23   29.90S
MARSHALL       CLOUDY    70  61  72 S6        30.01R
MOUNT PLEASANT MOCLDY    67  60  78 S3        29.94S
MUSKEGON       CLEAR     64  54  69 SW8       29.95R
SOUTH HAVEN    CLEAR     60  57  91 CALM      29.97S
$$
MIZ016>042-260500-
NORTHERN LOWER MICHIGAN

CITY           SKY/WX    TMP DP  RH WIND       PRES   REMARKS
ALPENA         MOCLDY    68  61  78 SW9       29.88R
BEAVER ISLAND  MOCLDY    61  56  83 SW10G20   29.82S
BELLAIRE       CLOUDY    69  60  74 S3        29.86R
CADILLAC       CLEAR     64  60  86 S8        29.92S
CHARLEVOIX     MOCLDY    68  60  75 S12       29.86S
FRANKFORT      CLOUDY    59  48  66 SW10G28   29.90R
GAYLORD        MOCLDY    66  62  87 SW13      29.89R
HARBOR SPRINGS PTCLDY    63  58  83 CALM      29.84R
HOUGHTON LAKE  MOCLDY    66  59  78 SW12      29.93R
MANISTEE       CLEAR     68  57  68 S6        29.90R
OSCODA         CLOUDY    68  61  79 SW13      29.91R
PELLSTON       LGT RAIN  68  61  78 SW8       29.84R
ROGERS CITY    PTCLDY    66  62  86 S7        29.86R
TRAVERSE CITY  CLEAR     69  60  73 VRB7      29.85R
$$
MIZ007>008-015-260500-
EASTERN UPPER MICHIGAN

CITY           SKY/WX    TMP DP  RH WIND       PRES   REMARKS
KINROSS        MOCLDY    57  57 100 SW5       29.82R
MACKINAC ISLAN PTCLDY    55  55  98 SW3       29.83R
NEWBERRY       CLOUDY    53  53 100 SW13      29.80R FOG
S. S. MARIE    CLOUDY    61  58  90 SW7       29.80R
$$
MIZ004>006-011>014-085-260500-
CENTRAL UPPER MICHIGAN

CITY           SKY/WX    TMP DP  RH WIND       PRES   REMARKS
MANISTIQUE     PTCLDY    47  45  93 S8        29.80R
ESCANABA       MOCLDY    61  55  82 CALM      29.78S
MENOMINEE      CLOUDY    66  61  82 SW7       29.81R
SAWYER-GWINN   PTCLDY    60  58  92 S7        29.77F
$$
MIZ001>003-009>011-084-260500-
WESTERN UPPER MICHIGAN

CITY           SKY/WX    TMP DP  RH WIND       PRES   REMARKS
IRON MOUNTAIN  CLOUDY    65  59  81 SW3       29.79R
HOUGHTON       CLOUDY    55  54  96 W8        29.73S
COPPER HARBOR    N/A     44  42  93 CALM      29.72R
IRONWOOD       CLOUDY    54  54 100 CALM      29.74S VSB 3/4
$$

ABBREVIATIONS USED IN REMARKS
   TC - TEMPERATURE IN CELSIUS
  WCI - WIND CHILL INDEX
   HX - HEAT INDEX
  VSB - VISIBILITY




USA.gov is the U.S. government's official web portal to all federal, state and local government web resources and services.